• In Portugal
  • List of Countries
  • For 7 days
  • Water Temperature
  • Satellite Maps
  • Weather Map
  • Weather Widgets
  • user-avatar
    Login

    Hourly Weather Pobondzie

    Today, 24 October, Wednesday

    Time Temperature Precipitation Wind Pressure Humidity
    00:00 +5°C° 0.2 mm 5 mps 727 mmHg 87%
    01:00 +3°C° 0.2 mm 5 mps 727 mmHg 87%
    02:00 +3°C° 0.2 mm 5 mps 727 mmHg 87%
    03:00 +3°C° 0.3 mm 5 mps 727 mmHg 85%
    04:00 +3°C° 0.3 mm 6 mps 727 mmHg 83%
    05:00 +3°C° 0.3 mm 7 mps 727 mmHg 81%
    06:00 +3°C° 0.1 mm 7 mps 727 mmHg 80%
    07:00 +3°C° 0.1 mm 7 mps 727 mmHg 80%
    08:00 +2°C° 0.1 mm 8 mps 727 mmHg 79%
    09:00 +2°C° 0.5 mm 9 mps 728 mmHg 78%
    10:00 +3°C° 0.5 mm 10 mps 728 mmHg 76%
    11:00 +3°C° 0.5 mm 10 mps 728 mmHg 75%
    12:00 +3°C° 0.5 mm 10 mps 729 mmHg 75%
    13:00 +5°C° 0.5 mm 10 mps 729 mmHg 75%
    14:00 +5°C° 0.5 mm 10 mps 730 mmHg 75%
    15:00 +5°C° 0.2 mm 9 mps 731 mmHg 74%
    16:00 +5°C° 0.2 mm 9 mps 732 mmHg 73%
    17:00 +5°C° 0.2 mm 8 mps 733 mmHg 72%
    18:00 +4°C° 0 mm 8 mps 734 mmHg 74%
    19:00 +4°C° 0 mm 8 mps 735 mmHg 75%
    20:00 +3°C° 0 mm 7 mps 736 mmHg 77%
    21:00 +3°C° 0 mm 7 mps 737 mmHg 78%
    22:00 +3°C° 0 mm 7 mps 738 mmHg 80%
    23:00 +2°C° 0 mm 6 mps 738 mmHg 81%

    Tomorrow, 25 October, Thursday

    Time Temperature Precipitation Wind Pressure Humidity
    00:00 +2°C° 0 mm 6 mps 739 mmHg 82%
    01:00 +2°C° 0 mm 5 mps 739 mmHg 83%
    02:00 +1°C° 0 mm 5 mps 739 mmHg 84%
    03:00 +1°C° 0 mm 4 mps 739 mmHg 86%
    04:00 +1°C° 0 mm 4 mps 739 mmHg 87%
    05:00 +1°C° 0 mm 4 mps 739 mmHg 89%
    06:00 +1°C° 0 mm 4 mps 738 mmHg 89%
    07:00 +2°C° 0 mm 3 mps 738 mmHg 89%
    08:00 +2°C° 0 mm 3 mps 738 mmHg 89%
    09:00 +3°C° 0.2 mm 4 mps 737 mmHg 85%
    10:00 +3°C° 0.2 mm 4 mps 736 mmHg 81%
    11:00 +3°C° 0.2 mm 5 mps 735 mmHg 77%
    12:00 +3°C° 1 mm 5 mps 734 mmHg 79%
    13:00 +3°C° 1 mm 5 mps 733 mmHg 82%
    14:00 +3°C° 1 mm 5 mps 732 mmHg 84%
    15:00 +3°C° 0.6 mm 5 mps 732 mmHg 84%
    16:00 +5°C° 0.6 mm 5 mps 732 mmHg 84%
    17:00 +5°C° 0.6 mm 5 mps 732 mmHg 84%
    18:00 +5°C° 0 mm 5 mps 733 mmHg 86%
    19:00 +4°C° 0 mm 4 mps 733 mmHg 87%
    20:00 +4°C° 0 mm 4 mps 734 mmHg 88%
    21:00 +3°C° 0 mm 3 mps 734 mmHg 90%
    22:00 +3°C° 0 mm 3 mps 735 mmHg 91%
    23:00 +3°C° 0 mm 2 mps 735 mmHg 93%

    Day after tomorrow, 26 October, Friday

    Time Temperature Precipitation Wind Pressure Humidity
    00:00 +3°C° 0.1 mm 3 mps 735 mmHg 92%
    01:00 +3°C° 0.1 mm 4 mps 736 mmHg 90%
    02:00 +4°C° 0.1 mm 4 mps 736 mmHg 89%
    03:00 +4°C° 0 mm 4 mps 736 mmHg 89%
    04:00 +2°C° 0 mm 5 mps 736 mmHg 89%
    05:00 +2°C° 0 mm 5 mps 737 mmHg 90%
    06:00 +3°C° 0 mm 4 mps 737 mmHg 91%
    07:00 +3°C° 0 mm 3 mps 737 mmHg 92%
    08:00 +2°C° 0 mm 3 mps 738 mmHg 93%
    09:00 +3°C° 0 mm 3 mps 738 mmHg 87%
    10:00 +5°C° 0 mm 3 mps 738 mmHg 82%
    11:00 +6°C° 0 mm 4 mps 738 mmHg 77%
    12:00 +6°C° 0.2 mm 4 mps 738 mmHg 78%
    13:00 +7°C° 0.2 mm 4 mps 738 mmHg 79%
    14:00 +7°C° 0.2 mm 4 mps 738 mmHg 80%
    15:00 +7°C° 0.1 mm 4 mps 738 mmHg 81%
    16:00 +6°C° 0.1 mm 4 mps 737 mmHg 81%
    17:00 +6°C° 0.1 mm 4 mps 737 mmHg 81%
    18:00 +6°C° 0.7 mm 5 mps 736 mmHg 83%
    19:00 +6°C° 0.7 mm 5 mps 736 mmHg 85%
    20:00 +4°C° 0.7 mm 6 mps 735 mmHg 86%
    21:00 +5°C° 0.4 mm 6 mps 734 mmHg 86%
    22:00 +7°C° 0.4 mm 6 mps 734 mmHg 87%
    23:00 +8°C° 0.4 mm 7 mps 733 mmHg 87%

    27 October, Saturday

    Time Temperature Precipitation Wind Pressure Humidity
    00:00 +8°C° 0.2 mm 7 mps 732 mmHg 86%
    01:00 +7°C° 0.2 mm 8 mps 732 mmHg 85%
    02:00 +7°C° 0.2 mm 8 mps 731 mmHg 84%
    03:00 +6°C° 0.4 mm 8 mps 731 mmHg 83%
    04:00 +6°C° 0.4 mm 7 mps 731 mmHg 82%
    05:00 +5°C° 0.4 mm 7 mps 731 mmHg 81%
    06:00 +5°C° 0.1 mm 7 mps 732 mmHg 81%
    07:00 +4°C° 0.1 mm 7 mps 732 mmHg 81%
    08:00 +4°C° 0.1 mm 8 mps 733 mmHg 82%
    09:00 +4°C° 0 mm 7 mps 734 mmHg 78%
    10:00 +4°C° 0 mm 6 mps 735 mmHg 74%
    11:00 +5°C° 0 mm 5 mps 736 mmHg 70%
    12:00 +6°C° 0.1 mm 5 mps 737 mmHg 68%
    13:00 +6°C° 0.1 mm 5 mps 738 mmHg 67%
    14:00 +7°C° 0.1 mm 4 mps 739 mmHg 65%
    15:00 +6°C° 0.2 mm 4 mps 739 mmHg 69%
    16:00 +5°C° 0.2 mm 3 mps 740 mmHg 73%
    17:00 +5°C° 0.2 mm 3 mps 740 mmHg 76%
    18:00 +4°C° 0.1 mm 3 mps 741 mmHg 79%
    19:00 +3°C° 0.1 mm 3 mps 742 mmHg 82%
    20:00 +3°C° 0.1 mm 3 mps 743 mmHg 85%
    21:00 +3°C° 0 mm 2 mps 743 mmHg 86%
    22:00 +3°C° 0 mm 2 mps 744 mmHg 88%
    23:00 +2°C° 0 mm 2 mps 745 mmHg 89%

    28 October, Sunday

    Time Temperature Precipitation Wind Pressure Humidity
    00:00 +2°C° 0 mm 2 mps 745 mmHg 90%
    01:00 +2°C° 0 mm 2 mps 746 mmHg 91%
    02:00 +2°C° 0 mm 2 mps 746 mmHg 91%
    03:00 +3°C° 0 mm 1 mps 747 mmHg 91%
    04:00 +2°C° 0 mm 1 mps 747 mmHg 91%
    05:00 +2°C° 0 mm 1 mps 747 mmHg 91%
    06:00 +2°C° 0 mm 1 mps 748 mmHg 90%
    07:00 +2°C° 0 mm 1 mps 748 mmHg 89%
    08:00 +1°C° 0 mm 0 mps 749 mmHg 88%
    09:00 +4°C° 0 mm 1 mps 750 mmHg 82%
    10:00 +5°C° 0 mm 1 mps 750 mmHg 75%
    11:00 +6°C° 0 mm 1 mps 751 mmHg 69%
    12:00 +7°C° 0 mm 1 mps 751 mmHg 66%
    13:00 +6°C° 0 mm 2 mps 751 mmHg 64%
    14:00 +6°C° 0 mm 2 mps 751 mmHg 61%
    15:00 +6°C° 0 mm 2 mps 751 mmHg 65%
    16:00 +5°C° 0 mm 2 mps 752 mmHg 69%
    17:00 +4°C° 0 mm 2 mps 752 mmHg 73%
    18:00 +4°C° 0 mm 2 mps 752 mmHg 75%
    19:00 +3°C° 0 mm 3 mps 752 mmHg 77%
    20:00 +2°C° 0 mm 3 mps 752 mmHg 78%
    21:00 +2°C° 0 mm 3 mps 753 mmHg 79%
    22:00 +1°C° 0 mm 4 mps 753 mmHg 79%
    23:00 +1°C° 0 mm 4 mps 753 mmHg 80%

    29 October, Monday

    Time Temperature Precipitation Wind Pressure Humidity
    00:00 +1°C° 0 mm 4 mps 753 mmHg 80%
    01:00 +1°C° 0 mm 4 mps 753 mmHg 81%
    02:00 +1°C° 0 mm 4 mps 753 mmHg 81%
    03:00 +1°C° 0.1 mm 5 mps 752 mmHg 82%
    04:00 0°C° 0.1 mm 5 mps 752 mmHg 82%
    05:00 0°C° 0.1 mm 5 mps 752 mmHg 82%
    06:00 0°C° 0.1 mm 5 mps 752 mmHg 82%
    07:00 0°C° 0.1 mm 5 mps 752 mmHg 81%
    08:00 -1°C° 0.1 mm 6 mps 752 mmHg 80%
    09:00 -1°C° 0.1 mm 6 mps 752 mmHg 78%
    10:00 +1°C° 0.1 mm 6 mps 752 mmHg 76%
    11:00 +1°C° 0.1 mm 6 mps 752 mmHg 74%
    12:00 0°C° 0.2 mm 7 mps 752 mmHg 73%
    13:00 0°C° 0.2 mm 7 mps 752 mmHg 72%
    14:00 0°C° 0.2 mm 7 mps 751 mmHg 71%
    15:00 0°C° 0.1 mm 7 mps 751 mmHg 71%
    16:00 -1°C° 0.1 mm 7 mps 751 mmHg 72%
    17:00 -1°C° 0.1 mm 6 mps 751 mmHg 72%
    18:00 -1°C° 0.1 mm 6 mps 751 mmHg 72%
    19:00 -2°C° 0.1 mm 6 mps 752 mmHg 72%
    20:00 -2°C° 0.1 mm 6 mps 752 mmHg 72%
    21:00 -2°C° 0 mm 6 mps 752 mmHg 73%
    22:00 -3°C° 0 mm 6 mps 752 mmHg 73%
    23:00 -2°C° 0 mm 5 mps 753 mmHg 73%
    Show more